Regional Weather Roundup
Issued by NWS

Home | Current Version | Previous Version | Text Only | Print | Product List | Glossary Off
Versions: 1 2 3 4 5 6 7 8 9 10 11 12 13 14 15 16 17 18 19 20 21 22 23 24 25 26 27 28 29 30 31 32 33 34 35 36 37 38 39 40 41 42 43 44 45 46 47 48 49 50

000
ASUS43 KFSD 242202
RWRSD

WEATHER ROUNDUP FOR SOUTH DAKOTA
NATIONAL WEATHER SERVICE SIOUX FALLS SD
500 PM CDT FRI OCT 24 2014

NOTE: "FAIR" INDICATES FEW OR NO CLOUDS BELOW 12,000 FEET WITH NO
SIGNIFICANT WEATHER AND/OR OBSTRUCTIONS TO VISIBILITY.


SDZ001>005-009-010-012>017-242300-
NORTHWEST AND NORTH CENTRAL SOUTH DAKOTA

CITY           SKY/WX    TMP DP  RH WIND       PRES   REMARKS
BUFFALO          N/A     63  29  27 NW17G23   29.98R
FAITH            N/A     68  36  30 NW13      30.00R
MOBRIDGE       SUNNY     74  40  29 NW16      29.91R
$$

SDZ012>016-024>037-041>051-057-063-072>074-242300-
SOUTHWEST AND SOUTH CENTRAL SOUTH DAKOTA

CITY           SKY/WX    TMP DP  RH WIND       PRES   REMARKS
RAPID CTY ARPT SUNNY     70  40  33 N10       30.03R
PIERRE         SUNNY     77  33  20 NW9       29.92R
CUSTER         SUNNY     69  29  22 CALM      30.10R
ELLSWORTH AFB  SUNNY     70  40  33 N12       30.03R
PHILIP         SUNNY     77  36  22 N8        29.96R
PINE RIDGE     SUNNY     77  32  19 CALM      29.99F
SPEARFISH      FAIR      64  36  34 NW3       30.07R
WINNER         FAIR      80  27  14 SW3       29.94R
$$

SDZ004>011-016>023-039-040-242300-
NORTHEAST SOUTH DAKOTA

CITY           SKY/WX    TMP DP  RH WIND       PRES   REMARKS
ABERDEEN       SUNNY     77  35  21 NW15      29.88R
WATERTOWN      MOSUNNY   72  39  30 NW9       29.90R
SISSETON         N/A     76  39  26 W14       29.83R
$$

SDZ017-020-022-023-036>040-048>070-242300-
SOUTHEAST SOUTH DAKOTA

CITY           SKY/WX    TMP DP  RH WIND       PRES   REMARKS
SIOUX FALLS    PTSUNNY   75  40  28 NW9       29.90R
HURON          MOSUNNY   80  33  18 NW14      29.89R
CHAMBERLAIN    MOSUNNY   76  32  20 SW3       29.93S
MITCHELL       SUNNY     79  36  21 CALM      29.91R
YANKTON        SUNNY     72  46  40 SW6       29.91R
$$

ABBREVIATIONS USED IN REMARKS
   TC - TEMPERATURE IN CELSIUS
  WCI - WIND CHILL INDEX
   HX - HEAT INDEX
  VSB - VISIBILITY




USA.gov is the U.S. government's official web portal to all federal, state and local government web resources and services.